Location: Krakow
(50.0830°N, 19.9170°E)
Time: 17:24:29
(UTC+01:00)

A-11 Canister half - All Passes

Search period start: 11 December 2023 00:00
Search period end: 21 December 2023 00:00
Orbit: 1514 x 1686 km, 47.2° (Epoch: 10 December)

Date Brightness Start Highest point End Pass type
(mag) Time Alt. Az. Time Alt. Az. Time Alt. Az.
11 Dec - 00:42:38 10° WSW 00:52:15 76° S 01:02:14 10° E visible
11 Dec - 02:47:18 10° W 02:56:57 65° SSW 03:06:54 10° ESE visible
11 Dec - 04:52:22 10° W 05:00:50 34° SW 05:09:29 10° SSE visible
11 Dec - 20:15:40 10° S 20:21:49 20° SE 20:28:05 10° E night (unlit)
11 Dec - 22:15:57 10° SW 22:24:55 51° SSE 22:34:14 10° E night (unlit)
12 Dec - 00:19:42 10° WSW 00:29:16 76° S 00:39:13 10° E visible
12 Dec - 02:24:21 10° W 02:33:59 67° SSW 02:43:56 10° ESE visible
12 Dec - 04:29:21 10° W 04:37:57 35° SW 04:46:43 10° SSE visible
12 Dec - 19:53:12 10° SSE 19:58:59 18° SE 20:04:52 10° E visible
12 Dec - 21:53:07 10° SW 22:02:00 49° SSE 22:11:13 10° E night (unlit)
12 Dec - 23:56:46 10° WSW 00:06:19 75° S 00:16:13 10° E visible
13 Dec - 02:01:24 10° W 02:11:02 68° SSW 02:20:58 10° ESE visible
13 Dec - 04:06:20 10° W 04:15:02 37° SW 04:23:56 10° SSE visible
13 Dec - 06:15:51 10° WSW 06:17:42 11° WSW 06:19:34 10° SW visible
13 Dec - 19:30:48 10° SSE 19:36:10 17° SE 19:41:37 10° E visible
13 Dec - 21:30:18 10° SW 21:39:06 47° SSE 21:48:12 10° ENE night (unlit)
13 Dec - 23:33:50 10° WSW 23:43:20 74° S 23:53:13 10° E night (unlit)
14 Dec - 01:38:27 10° W 01:48:04 69° SSW 01:58:00 10° ESE visible
14 Dec - 03:43:20 10° W 03:52:08 38° SW 04:01:07 10° SSE visible
14 Dec - 05:51:48 10° WSW 05:54:52 12° WSW 05:58:00 10° SW visible
14 Dec - 19:08:26 10° SSE 19:13:21 16° SE 19:18:18 10° E visible
14 Dec - 21:07:30 10° SW 21:16:12 45° SSE 21:25:12 10° ENE visible
14 Dec - 23:10:55 10° WSW 23:20:23 73° S 23:30:13 10° E night (unlit)
15 Dec - 01:15:30 10° W 01:25:06 70° SSW 01:35:02 10° ESE visible
15 Dec - 03:20:21 10° W 03:29:13 40° SW 03:38:18 10° SSE visible
15 Dec - 05:28:08 10° W 05:32:03 13° WSW 05:36:00 10° SSW visible
15 Dec - 18:46:11 10° SSE 18:50:32 14° SE 18:54:56 10° E visible
15 Dec - 20:44:43 10° SSW 20:53:18 43° SE 21:02:11 10° ENE visible
15 Dec - 22:48:00 10° WSW 22:57:24 72° S 23:07:13 10° E night (unlit)
16 Dec - 00:52:33 10° W 01:02:07 71° SSW 01:12:03 10° ESE visible
16 Dec - 02:57:22 10° W 03:06:18 42° SW 03:15:28 10° SSE visible
16 Dec - 05:04:40 10° W 05:09:13 14° SW 05:13:49 10° SSW visible
16 Dec - 18:24:02 10° SSE 18:27:43 13° ESE 18:31:27 10° E visible
16 Dec - 20:21:56 10° SSW 20:30:25 41° SE 20:39:10 10° E visible
16 Dec - 22:25:05 10° WSW 22:34:27 71° SSE 22:44:12 10° E night (unlit)
17 Dec - 00:29:37 10° W 00:39:09 72° SSW 00:49:04 10° ESE visible
17 Dec - 02:34:24 10° W 02:43:23 44° SW 02:52:38 10° SSE visible
17 Dec - 04:41:18 10° W 04:46:22 15° SW 04:51:30 10° SSW visible
17 Dec - 18:02:05 10° SE 18:04:55 12° ESE 18:07:46 10° ESE visible
17 Dec - 19:59:10 10° SSW 20:07:32 39° SE 20:16:09 10° E visible
17 Dec - 22:02:10 10° WSW 22:11:30 70° SSE 22:21:12 10° E visible
18 Dec - 00:06:40 10° W 00:16:12 73° S 00:26:05 10° ESE night (unlit)
18 Dec - 02:11:26 10° W 02:20:27 45° SSW 02:29:46 10° SE visible
18 Dec - 04:18:00 10° W 04:23:32 17° SW 04:29:07 10° SSW visible
18 Dec - 17:40:39 10° SE 17:42:07 10° ESE 17:43:36 10° ESE visible
18 Dec - 19:36:25 10° SSW 19:44:39 37° SE 19:53:07 10° E visible
18 Dec - 21:39:16 10° WSW 21:48:33 69° SSE 21:58:13 10° E visible
18 Dec - 23:43:44 10° W 23:53:13 74° S 00:03:06 10° ESE night (unlit)
19 Dec - 01:48:28 10° W 01:57:32 47° SSW 02:06:54 10° SE visible
19 Dec - 03:54:46 10° W 04:00:40 18° SW 04:06:41 10° SSW visible
19 Dec - 19:13:40 10° SSW 19:21:47 35° SE 19:30:05 10° E visible
19 Dec - 21:16:21 10° WSW 21:25:36 67° SSE 21:35:13 10° E visible
19 Dec - 23:20:47 10° W 23:30:15 75° S 23:40:06 10° ESE night (unlit)
20 Dec - 01:25:30 10° W 01:34:37 49° SSW 01:44:01 10° SE visible
20 Dec - 03:31:35 10° W 03:37:49 19° SW 03:44:11 10° S visible
20 Dec - 18:50:57 10° SSW 18:58:54 34° SE 19:07:03 10° E visible
20 Dec - 20:53:28 10° WSW 21:02:40 66° SSE 21:12:13 10° E visible
20 Dec - 22:57:50 10° W 23:07:17 75° S 23:17:06 10° ESE night (unlit)
